Location: Unspecified
(0.0000°N, 0.0000°E)
Time: 13:48:54
(UTC+00:00)

N. Korean satellite - Pass Details

Date: 17 September 2019
Orbit: 455 x 509 km, 97.2° (Epoch: 17 September)

Event Time Altitude Azimuth Distance (km) Brightness Sun altitude
Rises 18:12:56 0° 194° (SSW) 2,606 10.4 -4.6°
Reaches altitude 10° 18:15:29 10° 213° (SSW) 1,714 9.8 -5.2°
Maximum altitude 18:18:07 19° 259° (WSW) 1,249 9.9 -5.9°
Drops below altitude 10° 18:20:45 10° 305° (NW) 1,692 10.3 -6.6°
Sets 18:23:15 0° 323° (NW) 2,561 10.8 -7.2°
